EW2804 Weather Reports


time (UTC)temp
C
wind
direction
speed
KPH
gust
KPH
rain 1hr
cm
rain 24hr
cm
rain mn
cm
humidity
%
barometer
mb
20260506123907 11 0 3.2 11.3 0.00 0.00 0.00 78 1012.3
20260506122924 11 0 3.2 8.0 0.00 0.00 0.00 78 1012.2
20260506121932 11 0 3.2 12.9 0.00 0.00 0.00 78 1012.1
20260506120908 11 0 3.2 16.1 0.00 0.00 0.00 78 1012.0
20260506115900 11 0 4.8 16.1 0.00 0.00 0.00 77 1012.0
20260506114849 11 0 4.8 14.5 0.00 0.00 0.00 76 1011.7
20260506113835 11 0 3.2 14.5 0.00 0.00 0.00 75 1011.6
20260506111712 12 0 4.8 17.7 0.00 0.00 0.00 72 1011.1
20260506110643 12 0 3.2 17.7 0.00 0.00 0.00 72 1011.0
20260506105652 12 46 4.8 16.1 0.00 0.00 0.00 71 1010.9
20260506104659 12 0 4.8 14.5 0.00 0.00 0.00 71 1010.5
20260506103715 13 331 1.6 17.7 0.00 0.00 0.00 70 1010.5
20260506102731 13 57 4.8 17.7 0.00 0.00 0.00 70 1010.4
20260506101701 13 24 3.2 11.3 0.00 0.00 0.00 70 1010.2
20260506100647 13 345 3.2 11.3 0.00 0.00 0.00 70 1010.1
20260506095635 13 320 3.2 9.7 0.00 0.00 0.00 70 1009.8
20260506094628 13 350 1.6 6.4 0.00 0.00 0.00 70 1009.7
20260506093556 13 9 1.6 12.9 0.00 0.00 0.00 70 1009.7
20260506092548 13 346 3.2 12.9 0.00 0.00 0.00 71 1009.4
20260506090509 13 5 1.6 9.7 0.00 0.00 0.00 71 1009.3
20260506084415 13 5 3.2 14.5 0.00 0.00 0.00 70 1009.0
20260506083344 13 319 3.2 14.5 0.00 0.00 0.00 71 1009.1
20260506082318 14 321 3.2 11.3 0.00 0.00 0.00 71 1009.2
20260506081330 14 24 3.2 9.7 0.00 0.00 0.00 72 1008.9
20260506080326 14 37 3.2 12.9 0.00 0.00 0.00 72 1008.9
20260506072127 14 49 3.2 9.7 0.00 0.00 0.00 72 1008.2
20260506071112 14 53 1.6 16.1 0.00 0.00 0.00 72 1008.3
20260506062052 15 49 3.2 12.9 0.00 0.00 0.00 71 1008.6
20260506061115 15 11 3.2 12.9 0.00 0.00 0.00 72 1008.4
20260506050911 15 341 3.2 12.9 0.00 0.00 0.00 74 1008.6
20260506044824 16 306 3.2 12.9 0.00 0.00 0.00 74 1008.3
20260506043839 16 332 3.2 11.3 0.00 0.00 0.00 74 1008.4
20260506042810 16 40 3.2 12.9 0.00 0.00 0.00 74 1008.5
20260506041816 16 26 4.8 12.9 0.00 0.00 0.00 73 1008.3
20260506040754 16 314 3.2 14.5 0.00 0.00 0.00 74 1008.2
20260506035747 16 346 3.2 14.5 0.00 0.00 0.00 74 1008.1
20260506034713 17 5 3.2 12.9 0.00 0.00 0.00 73 1007.8
20260506032524 17 0 3.2 12.9 0.00 0.00 0.00 73 1007.4
20260506031505 17 13 4.8 14.5 0.00 0.00 0.00 73 1007.2
20260506030441 18 19 3.2 16.1 0.00 0.00 0.00 72 1007.3
20260506025453 18 44 3.2 16.1 0.00 0.00 0.00 72 1007.1
20260506024502 18 339 3.2 12.9 0.00 0.00 0.00 71 1007.0
20260506022355 19 9 4.8 14.5 0.00 0.00 0.00 70 1006.3
20260506021325 20 9 1.6 12.9 0.00 0.00 0.00 71 1005.9
20260506020328 20 35 1.6 9.7 0.00 0.00 0.00 71 1005.7
20260506015330 20 5 1.6 8.0 0.00 0.00 0.00 70 1005.3
20260506014252 20 13 1.6 8.0 0.00 0.00 0.00 69 1005.2
20260506013238 20 30 1.6 6.4 0.00 0.00 0.00 68 1005.3
20260506012218 20 37 1.6 17.7 0.00 0.00 0.00 68 1005.0
20260506011202 20 34 4.8 17.7 0.00 0.00 0.00 67 1004.9
20260506010131 20 32 1.6 14.5 0.00 0.00 0.00 67 1004.4
20260506005109 21 344 4.8 16.1 0.00 0.00 0.00 66 1004.4
20260506004100 21 0 4.8 16.1 0.00 0.00 0.00 66 1003.8
20260506003119 22 13 3.2 14.5 0.00 0.00 0.00 65 1003.7
20260506002125 22 47 3.2 14.5 0.00 0.00 0.00 65 1003.5
20260506001056 22 323 4.8 12.9 0.00 0.00 0.00 64 1003.6
20260505235053 23 30 4.8 17.7 0.00 0.00 0.00 63 1003.6
20260505232928 24 34 4.8 16.1 0.00 0.00 0.00 62 1003.4
20260505231927 25 27 4.8 16.1 0.00 0.00 0.00 61 1003.1
20260505230922 26 10 4.8 16.1 0.00 0.00 0.00 59 1003.1
20260505225928 26 332 3.2 12.9 0.00 0.00 0.00 60 1003.0
20260505224943 27 317 4.8 12.9 0.00 0.00 0.00 58 1002.8
20260505223924 27 302 3.2 12.9 0.00 0.00 0.00 58 1002.4
20260505222907 28 319 3.2 11.3 0.00 0.00 0.00 56 1002.5
20260505221924 28 351 3.2 11.3 0.00 0.00 0.00 53 1002.1
20260505220926 29 325 3.2 12.9 0.00 0.00 0.00 53 1002.2
20260505215936 29 327 3.2 12.9 0.00 0.00 0.00 54 1002.1
20260505214946 29 335 3.2 11.3 0.00 0.00 0.00 51 1001.9
20260505213941 30 0 4.8 11.3 0.00 0.00 0.00 47 1002.1
20260505211903 30 319 3.2 12.9 0.00 0.00 0.00 45 1001.9
20260505210838 30 285 3.2 11.3 0.00 0.00 0.00 49 1002.0
20260505205854 30 290 3.2 11.3 0.00 0.00 0.00 54 1002.1
20260505204847 31 240 3.2 9.7 0.00 0.00 0.00 55 1002.1
20260505203905 31 205 4.8 12.9 0.00 0.00 0.00 57 1002.1
20260505202911 31 244 3.2 16.1 0.00 0.00 0.00 59 1002.2
20260505201836 31 271 4.8 16.1 0.00 0.00 0.00 57 1002.4
20260505200836 30 236 4.8 16.1 0.00 0.00 0.00 55 1002.7
20260505195853 30 227 4.8 14.5 0.00 0.00 0.00 57 1002.5
20260505194838 30 216 4.8 19.3 0.00 0.00 0.00 59 1002.5
20260505193820 30 227 4.8 19.3 0.00 0.00 0.00 61 1002.7
20260505192833 30 217 4.8 16.1 0.00 0.00 0.00 61 1002.8
20260505191851 30 217 4.8 14.5 0.00 0.00 0.00 63 1002.5
20260505190837 29 194 6.4 14.5 0.00 0.00 0.00 61 1002.6
20260505185855 29 198 3.2 12.9 0.00 0.00 0.00 64 1002.6
20260505184819 28 172 4.8 17.7 0.00 0.00 0.00 66 1002.5
20260505183841 28 232 4.8 17.7 0.00 0.00 0.00 63 1002.6
20260505182901 28 227 6.4 16.1 0.00 0.00 0.00 63 1002.8
20260505181920 28 265 4.8 17.7 0.00 0.00 0.00 65 1002.6
20260505180938 28 263 4.8 17.7 0.00 0.00 0.00 66 1002.7
20260505175912 28 211 4.8 17.7 0.00 0.00 0.00 65 1002.8
20260505174911 28 224 4.8 14.5 0.00 0.00 0.00 66 1002.8
20260505173903 27 236 4.8 12.9 0.00 0.00 0.00 70 1002.7
20260505172916 27 208 4.8 12.9 0.00 0.00 0.00 69 1002.7
20260505171931 27 212 3.2 12.9 0.00 0.00 0.00 68 1002.8
20260505170906 26 256 4.8 17.7 0.00 0.00 0.00 70 1002.8
20260505165832 26 238 4.8 17.7 0.00 0.00 0.00 70 1002.7
20260505164815 26 253 4.8 14.5 0.00 0.00 0.00 70 1002.8
20260505163826 26 188 4.8 16.1 0.00 0.00 0.00 71 1002.8
20260505162808 25 225 3.2 17.7 0.00 0.00 0.00 71 1002.7
20260505161754 25 232 4.8 17.7 0.00 0.00 0.00 71 1002.7
20260505160809 25 227 4.8 16.1 0.00 0.00 0.00 72 1002.7
20260505152546 25 271 6.4 19.3 0.00 0.00 0.00 72 1002.7
20260505151548 25 229 3.2 16.1 0.00 0.00 0.00 74 1002.5
20260505150512 24 236 4.8 16.1 0.00 0.00 0.00 76 1002.5
20260505140145 23 244 1.6 12.9 0.00 0.00 0.00 78 1002.6
20260505124914 21 146 3.2 19.3 0.00 0.00 0.00 81 1002.2